Wind_Speed
13 14 16 17 18 20 21 22 22 23 23 23 24 24 26 28 30 33 36 39 43 46 50 54 58 63 68 72 75 79 81 83 85 85 84 82 79 76 74 72 69 67 64 62
14 16 17 18 19 20 21 21 22 22 22 23 23 24 27 29 32 35 38 42 45 49 53 57 61 66 70 73 77 80 82 84 85 84 83 80 76 74 71 69 67 64 62 59
14 16 17 19 19 20 20 20 21 22 22 23 24 24 28 31 34 37 40 44 48 51 55 59 64 68 71 74 77 80 82 84 84 82 80 76 73 70 68 65 63 61 59 57
14 16 17 18 19 20 20 20 21 22 23 24 27 27 29 33 36 39 43 46 50 54 57 61 65 69 72 75 78 81 82 83 82 80 77 74 71 69 66 64 61 59 58 57
14 16 17 18 19 19 20 20 21 22 23 24 27 30 32 36 38 42 45 48 52 55 59 63 66 70 73 75 78 81 82 82 80 77 74 72 70 67 65 62 60 58 57 56
14 15 17 17 18 19 20 20 21 22 23 25 28 32 35 38 40 44 47 50 53 57 60 64 67 70 73 76 78 80 81 80 77 74 72 70 68 66 63 60 58 57 56 56
13 15 16 17 18 20 21 22 23 24 25 28 31 33 37 39 42 45 48 51 54 57 61 64 67 70 73 76 78 79 79 77 75 72 71 69 67 65 62 60 58 58 58 57
14 15 16 17 19 20 22 23 25 27 28 28 31 34 37 40 43 46 49 52 55 58 62 65 67 70 73 75 77 78 78 75 73 70 68 67 65 63 61 60 60 61 60 60
14 15 17 18 20 21 22 24 26 28 30 31 33 36 38 42 44 47 49 52 55 59 62 65 68 70 72 75 76 77 76 73 71 69 67 65 64 62 61 60 61 62 62 61
15 16 18 19 20 22 23 25 27 30 33 36 36 37 40 42 45 47 50 53 56 59 62 65 68 70 72 74 75 75 74 71 69 67 65 64 62 62 61 61 62 62 63 63
14 16 18 20 22 23 24 26 28 29 32 36 39 37 41 43 45 47 50 53 56 59 62 65 67 69 71 73 74 74 72 69 67 65 63 62 61 61 61 61 63 63 64 64
14 16 19 21 23 24 26 27 29 31 32 34 38 38 42 43 45 47 50 53 56 59 62 65 67 69 71 72 73 72 70 67 65 63 62 61 61 61 61 61 63 64 65 65
14 16 18 21 23 25 26 28 30 31 33 35 37 39 42 43 45 47 50 54 57 60 62 64 66 68 70 71 71 70 68 65 63 62 61 60 60 60 61 61 63 64 65 65
13 16 19 21 23 25 27 30 32 34 35 36 38 40 42 44 46 48 51 54 57 59 62 64 66 67 69 70 70 68 66 64 62 60 60 59 60 60 61 62 63 65 65 64
13 16 19 21 24 26 29 31 33 35 37 38 39 40 42 44 46 49 51 54 57 59 61 63 65 66 68 69 68 67 65 62 61 59 59 59 59 60 61 62 63 64 65 64
12 15 18 21 23 25 28 31 34 36 38 40 41 41 43 45 47 49 52 54 57 59 61 63 64 66 67 68 67 65 63 61 60 59 58 58 58 59 60 61 62 63 64 64
11 14 16 19 23 25 28 32 34 37 40 42 43 44 45 46 47 50 52 55 57 59 61 62 64 65 66 66 66 64 62 60 59 58 57 57 57 58 59 60 62 62 63 63
11 14 17 19 23 27 30 33 36 38 41 43 44 45 46 47 49 51 53 55 57 59 61 62 63 64 65 65 65 63 61 60 58 57 56 56 56 57 58 59 60 61 62 62
13 15 18 21 23 26 30 34 37 39 41 44 46 47 48 49 50 51 54 56 57 59 60 61 62 63 64 64 64 62 61 59 58 57 56 55 55 56 57 58 59 60 61 61
14 16 19 22 25 29 32 35 39 42 44 47 49 50 51 51 51 53 55 56 57 58 60 61 62 63 63 64 63 62 60 59 57 56 55 55 55 55 56 56 57 59 60 60
16 17 19 22 25 28 31 35 39 42 45 48 50 51 53 53 53 53 55 56 57 58 60 61 61 62 62 63 62 61 60 58 57 56 55 54 54 55 55 55 56 57 58 59
19 20 21 24 27 29 32 36 39 41 44 47 50 52 54 54 54 55 56 57 57 58 59 60 61 61 61 62 62 61 59 58 56 56 55 54 54 54 54 54 54 55 55 56
22 22 23 24 27 30 32 35 38 41 44 47 50 52 55 56 56 56 56 57 58 58 59 60 60 60 61 61 61 60 59 57 56 55 54 54 53 54 53 53 53 52 53 54
25 25 25 25 27 30 33 35 38 41 44 47 50 52 55 57 58 57 57 57 58 58 59 59 60 60 60 60 60 60 58 57 55 54 54 53 52 52 53 52 51 51 51 51
28 29 28 27 28 30 32 35 38 41 43 47 50 52 54 57 59 59 58 58 58 58 59 59 59 59 59 59 59 59 58 56 54 53 53 52 52 51 52 52 51 50 51 51
30 32 32 30 31 32 34 36 38 41 43 46 49 52 54 56 59 60 59 58 58 58 58 58 59 58 58 58 58 58 57 56 54 52 51 51 51 50 51 50 51 51 50 50
Wind_Direction
305 308 312 316 319 320 321 321 321 321 322 324 325 326 324 324 324 324 323 323 324 325 326 327 328 328 328 328 327 327 326 325 324 323 323 322 322 323 322 321 320 318 317 315
310 315 319 322 324 324 324 323 324 324 326 327 329 330 325 327 327 327 326 327 327 328 329 330 330 330 330 329 329 328 326 325 325 325 325 325 326 325 325 324 323 321 319 316
319 322 324 325 325 325 326 327 328 329 331 330 331 333 328 329 329 329 329 330 330 331 332 332 332 331 331 330 330 328 327 327 327 327 328 328 328 327 327 326 324 322 320 318
327 328 329 329 328 329 331 331 331 332 333 333 332 334 331 333 332 332 332 333 333 333 334 333 333 332 332 331 331 329 329 329 329 330 330 330 330 330 329 328 326 325 322 320
335 335 334 333 333 334 334 334 334 334 335 334 332 334 335 335 335 334 334 335 335 335 335 334 333 333 333 333 332 331 330 331 332 332 332 332 332 332 332 331 329 327 325 322
342 341 339 338 338 338 337 336 336 335 336 337 337 337 336 337 336 336 336 337 336 336 335 334 334 335 334 334 333 332 332 333 334 334 334 334 335 334 334 333 332 330 327 324
350 348 346 345 343 341 339 338 338 340 342 342 340 339 337 337 337 338 338 338 337 336 335 336 336 336 335 335 334 334 334 335 335 336 336 336 337 336 336 335 334 333 331 328
2 357 354 352 348 345 343 341 341 341 343 344 341 340 338 339 340 340 339 338 337 336 337 337 337 337 337 336 336 336 336 336 337 337 338 339 339 339 338 338 337 336 334 332
12 7 4 359 354 350 347 345 343 341 342 345 346 342 342 343 341 340 339 338 338 338 338 338 338 338 338 337 337 337 337 338 339 339 340 341 341 341 341 341 341 340 338 336
18 14 9 4 359 356 352 348 346 345 343 344 348 343 344 343 341 340 339 339 339 339 339 339 339 339 339 339 339 339 339 340 341 342 343 343 344 344 344 344 344 343 342 340
21 17 13 9 6 0 356 352 349 346 345 343 345 346 343 343 342 340 340 340 340 340 341 341 341 341 341 340 340 341 341 342 343 344 345 345 346 347 347 347 347 346 345 345
22 18 15 12 9 5 360 355 351 347 346 344 344 345 343 343 341 341 341 341 341 341 342 342 342 342 342 342 342 342 343 344 345 346 346 347 349 350 350 350 350 350 350 349
21 19 17 15 12 8 3 358 353 350 347 346 345 344 342 343 342 342 342 342 342 343 343 343 343 343 343 343 343 344 345 346 347 348 348 350 351 352 353 353 353 354 354 354
18 17 16 16 13 10 6 2 357 354 350 348 346 345 343 343 344 344 344 343 344 344 344 344 344 345 345 345 345 346 347 348 348 349 351 352 353 355 355 356 356 357 357 358
13 12 13 13 12 10 8 4 0 356 353 350 348 346 344 345 345 345 345 344 345 345 345 346 346 346 346 346 347 347 348 349 350 351 352 354 355 357 358 359 359 360 0 1
5 7 8 9 9 8 7 5 2 358 356 353 351 349 347 346 346 346 346 345 346 346 347 347 347 347 348 348 348 349 350 351 352 353 354 356 357 358 359 1 1 2 3 4
353 358 1 3 4 3 6 6 5 1 358 355 353 351 349 348 347 347 347 347 347 348 348 348 348 349 349 349 350 351 351 352 353 354 356 357 358 359 0 2 3 4 5 6
336 344 350 355 357 2 1 2 4 3 359 357 354 352 351 349 348 348 348 348 348 348 349 349 349 350 350 351 351 352 353 354 355 356 357 358 359 0 2 3 5 6 7 8
323 333 341 346 351 354 357 359 1 1 360 358 356 354 352 350 349 349 349 349 348 349 349 350 351 351 351 352 352 353 354 355 356 357 358 359 0 1 3 4 5 7 8 10
313 326 334 340 344 350 353 355 357 356 359 358 356 355 353 351 349 349 349 349 348 349 350 351 352 352 352 353 353 354 355 356 357 358 359 360 1 2 4 5 6 7 9 10
302 314 324 332 339 343 348 350 352 355 355 355 355 354 353 352 350 349 349 349 349 350 351 351 352 353 353 353 354 355 356 357 358 358 359 0 2 3 5 6 7 8 9 11
294 305 316 325 332 339 343 346 349 350 351 353 353 353 353 352 350 350 350 349 349 350 351 352 353 353 353 354 355 356 356 357 358 359 360 1 2 4 5 7 8 9 10 11
288 298 309 319 326 331 336 340 343 345 348 349 351 352 352 352 351 350 349 349 350 350 351 352 353 353 354 354 355 356 357 358 359 359 0 1 2 3 5 7 8 9 10 11
282 291 300 310 317 324 329 334 338 341 344 346 348 349 350 351 351 350 349 349 350 350 351 352 353 354 354 355 355 356 357 357 359 360 0 1 2 3 4 5 7 8 10 11
278 285 292 301 309 315 322 327 332 336 339 342 345 347 348 349 350 350 349 349 349 350 351 352 353 354 354 355 355 356 357 357 358 360 0 1 2 3 3 4 6 7 8 9
276 282 289 297 303 310 316 322 327 332 336 338 341 344 345 346 348 349 349 348 349 349 350 352 353 353 354 355 355 356 357 357 358 359 0 1 2 2 3 4 4 5 7 9
Height
5886 5885 5882 5880 5877 5875 5871 5868 5865 5862 5858 5855 5851 5847 5842 5838 5833 5828 5822 5816 5809 5801 5792 5782 5771 5760 5748 5734 5720 5705 5690 5674 5658 5643 5626 5610 5594 5578 5563 5549 5535 5523 5512 5502
5885 5882 5880 5877 5874 5871 5868 5865 5862 5859 5855 5851 5848 5844 5839 5834 5829 5823 5817 5810 5802 5793 5783 5773 5762 5750 5737 5724 5709 5693 5677 5661 5644 5627 5611 5594 5579 5564 5549 5535 5521 5509 5498 5488
5882 5880 5877 5874 5871 5869 5866 5862 5859 5855 5852 5847 5844 5841 5835 5830 5824 5818 5811 5803 5795 5785 5775 5764 5753 5740 5727 5712 5697 5681 5665 5648 5630 5613 5597 5581 5567 5552 5538 5525 5512 5498 5486 5475
5880 5877 5875 5872 5869 5866 5863 5859 5856 5852 5848 5844 5840 5837 5832 5826 5819 5813 5805 5797 5788 5778 5767 5756 5744 5731 5717 5702 5685 5669 5652 5634 5617 5600 5584 5569 5555 5541 5527 5513 5500 5487 5475 5463
5878 5875 5872 5870 5867 5863 5860 5857 5853 5849 5845 5842 5837 5832 5829 5821 5814 5807 5799 5790 5781 5770 5759 5748 5735 5722 5707 5691 5675 5657 5639 5622 5604 5587 5572 5558 5543 5529 5516 5502 5490 5477 5464 5452
5877 5874 5871 5868 5864 5861 5858 5855 5852 5848 5844 5840 5834 5828 5823 5816 5809 5802 5793 5784 5774 5763 5752 5740 5727 5712 5697 5681 5664 5646 5628 5611 5594 5578 5563 5548 5534 5520 5506 5493 5481 5468 5455 5442
5876 5873 5869 5866 5863 5859 5856 5853 5849 5845 5841 5837 5830 5824 5820 5812 5804 5796 5787 5778 5767 5757 5745 5732 5719 5704 5688 5672 5654 5637 5619 5602 5586 5570 5554 5539 5525 5510 5497 5483 5471 5457 5444 5430
5874 5872 5869 5865 5862 5858 5854 5850 5846 5842 5838 5834 5828 5822 5817 5808 5799 5790 5781 5772 5762 5750 5738 5725 5711 5696 5680 5663 5646 5629 5611 5595 5578 5563 5547 5532 5517 5502 5488 5474 5460 5446 5432 5417
5873 5871 5867 5863 5860 5856 5853 5848 5844 5839 5835 5830 5825 5818 5811 5802 5794 5786 5776 5766 5756 5744 5732 5718 5704 5688 5672 5656 5638 5621 5604 5587 5571 5556 5540 5525 5510 5496 5481 5467 5452 5437 5421 5406
5873 5870 5867 5863 5859 5855 5851 5847 5842 5836 5830 5825 5821 5813 5807 5798 5790 5781 5771 5761 5750 5738 5725 5711 5697 5681 5665 5648 5631 5613 5596 5580 5564 5548 5533 5519 5504 5490 5475 5460 5446 5430 5413 5397
5872 5869 5866 5862 5858 5854 5850 5845 5839 5834 5828 5821 5815 5813 5803 5794 5785 5776 5766 5756 5744 5732 5719 5704 5690 5674 5658 5641 5624 5607 5590 5574 5558 5543 5528 5514 5500 5485 5470 5455 5440 5423 5407 5389
5871 5869 5865 5861 5857 5851 5847 5843 5838 5833 5827 5819 5812 5810 5798 5790 5780 5771 5761 5750 5738 5726 5712 5698 5683 5668 5652 5635 5618 5601 5585 5569 5553 5539 5524 5510 5495 5481 5466 5451 5435 5419 5401 5383
5871 5868 5865 5860 5857 5852 5846 5841 5835 5830 5824 5817 5810 5806 5794 5786 5776 5767 5756 5745 5733 5720 5707 5692 5677 5662 5646 5629 5613 5596 5580 5564 5549 5535 5521 5506 5492 5478 5463 5448 5432 5415 5398 5380
5870 5867 5864 5860 5855 5850 5845 5840 5833 5827 5821 5815 5807 5800 5791 5781 5772 5762 5751 5740 5728 5715 5701 5687 5672 5657 5641 5624 5608 5592 5576 5560 5546 5532 5518 5504 5489 5475 5460 5445 5429 5413 5396 5379
5869 5866 5861 5857 5853 5848 5843 5838 5831 5824 5818 5811 5804 5796 5787 5777 5768 5757 5747 5735 5723 5710 5696 5682 5667 5652 5636 5620 5604 5587 5572 5557 5543 5529 5516 5501 5487 5473 5458 5443 5428 5412 5395 5378
5868 5865 5861 5857 5852 5847 5842 5836 5829 5822 5815 5808 5800 5792 5783 5773 5763 5753 5742 5731 5718 5705 5692 5678 5663 5647 5632 5616 5600 5584 5569 5555 5541 5528 5514 5500 5486 5472 5458 5443 5428 5413 5397 5380
5866 5863 5860 5856 5851 5847 5840 5834 5827 5820 5812 5805 5796 5789 5779 5770 5759 5749 5738 5726 5714 5701 5687 5673 5659 5644 5629 5613 5597 5582 5567 5553 5539 5526 5512 5499 5485 5472 5458 5444 5429 5414 5399 5384
5864 5861 5857 5854 5850 5843 5840 5831 5825 5818 5809 5801 5793 5784 5775 5765 5755 5745 5734 5722 5709 5697 5683 5669 5655 5640 5625 5610 5595 5580 5565 5552 5538 5524 5511 5498 5485 5472 5458 5444 5431 5417 5402 5387
5861 5858 5854 5850 5846 5841 5836 5828 5820 5814 5808 5799 5790 5781 5771 5761 5751 5741 5730 5718 5705 5693 5679 5665 5651 5636 5622 5607 5592 5577 5563 5550 5537 5524 5511 5498 5486 5473 5459 5446 5433 5419 5405 5391
5858 5855 5851 5846 5841 5836 5833 5825 5817 5811 5803 5795 5786 5777 5767 5757 5748 5738 5726 5714 5701 5689 5675 5661 5647 5633 5619 5604 5590 5576 5562 5549 5536 5523 5511 5498 5486 5473 5460 5448 5435 5421 5408 5395
5855 5852 5848 5843 5838 5834 5829 5821 5814 5807 5801 5792 5783 5773 5764 5754 5744 5734 5722 5710 5697 5685 5672 5658 5644 5630 5616 5602 5588 5574 5561 5548 5535 5523 5511 5499 5486 5474 5461 5449 5436 5424 5411 5398
5850 5847 5844 5839 5835 5831 5824 5817 5811 5805 5797 5788 5780 5770 5761 5751 5740 5729 5718 5706 5694 5682 5669 5655 5642 5628 5614 5600 5586 5573 5560 5547 5534 5522 5510 5499 5487 5475 5463 5451 5439 5427 5415 5403
5845 5843 5839 5836 5833 5826 5820 5814 5808 5801 5794 5785 5777 5768 5758 5747 5736 5726 5714 5703 5691 5678 5666 5653 5639 5626 5612 5599 5585 5572 5559 5546 5534 5522 5510 5499 5487 5476 5465 5454 5443 5432 5420 5409
5839 5837 5834 5831 5828 5822 5816 5810 5804 5797 5790 5782 5773 5764 5754 5744 5733 5722 5711 5700 5688 5675 5663 5650 5637 5624 5611 5597 5584 5571 5558 5545 5534 5522 5511 5499 5488 5477 5467 5456 5446 5435 5425 5414
5833 5830 5827 5825 5822 5818 5813 5806 5800 5793 5786 5778 5770 5761 5751 5741 5730 5719 5708 5696 5685 5673 5660 5648 5635 5622 5609 5596 5583 5570 5557 5545 5534 5522 5511 5500 5490 5479 5468 5458 5447 5438 5427 5416
5827 5823 5820 5819 5815 5811 5807 5801 5795 5788 5781 5774 5765 5757 5747 5737 5727 5716 5705 5693 5682 5670 5658 5645 5633 5620 5607 5594 5582 5569 5557 5545 5534 5523 5512 5502 5492 5481 5471 5460 5448 5437 5428 5419